Lexington Weather

Lexington, Massachusetts, USA

34°F
4/16/2021 10:43am 
  • Lexington Conditions: Snow, Fog, Overcast
  • Temperature: 34.2°F / 1.2°CWarmer 0.4°F than last hour.
  • Dew Point: 32.9°FIncreased 0.4°Fsince last hour.
  • Relative Humidity: 95
  • Wind: Calm, 10-min avg: Calm, gust: 1 mph
  • Barometer: 29.48 in Steady
  • Visibility: ½ mile
  • Snow Today: 1.3 in
  •   

Regional Weather Roundup
for Boston / Norton, MA

        
000
ASUS41 KBOX 132004
RWRBOX

REGIONAL WEATHER ROUNDUP
NATIONAL WEATHER SERVICE BOSTON/NORTON MA
400 PM EDT TUE APR 13 2021

NOTE:  "FAIR" INDICATES FEW OR NO CLOUDS BELOW 12,000 FEET WITH NO 
SIGNIFICANT WEATHER AND/OR OBSTRUCTIONS TO VISIBILITY.

MAZALL-132100-
EASTERN MASSACHUSETTS
  
CITY           SKY/WX    TMP DP  RH WIND       PRES   REMARKS
BOSTON         MOSUNNY   54  41  61 E14       30.03S                  
BEVERLY        NOT AVBL                                               
LAWRENCE       CLOUDY    60  40  47 E10       30.03R                  
BEDFORD        MOSUNNY   63  41  44 E9        30.00R                  
BLUE HILL        N/A     55  38  52 NE9G17    30.01R                  
NORWOOD        SUNNY     59  39  47 NE13      30.02S                  
MARSHFIELD     MOSUNNY   52  41  66 NE9       30.03S                  
PLYMOUTH       SUNNY     53  39  59 NE13G23   30.01F                  
TAUNTON        SUNNY     57  38  48 N12G21    30.01S                  
NEW BEDFORD    PTSUNNY   57  40  52 NE10G18   30.01S                  
$$

MAZALL-132100-
CAPE COD AND THE ISLANDS
  
CITY           SKY/WX    TMP DP  RH WIND       PRES   REMARKS
FALMOUTH       MOSUNNY   52  41  66 NE17      30.01S                  
HYANNIS        MOSUNNY   54  42  64 N14G23    29.98S                  
CHATHAM        SUNNY     51  39  63 NE12G22   30.00S                  
PROVINCETOWN   SUNNY     49  43  80 NW7         N/A                   
NANTUCKET      PTSUNNY   50  41  71 N21G29    29.99R                  
MARTHAS VNYRD  CLOUDY    53  41  63 NE17G26   30.00S                  
$$
 
MAZALL-132100-
CENTRAL AND WESTERN MASSACHUSETTS
  
CITY           SKY/WX    TMP DP  RH WIND       PRES   REMARKS
WORCESTER      PTSUNNY   61  39  44 VRB7      30.00S                  
FITCHBURG      CLOUDY    63  40  42 E9        30.00S                  
ORANGE         CLOUDY    65  40  39 VRB5      29.99F                  
SPRINGFIELD    PTSUNNY   65  41  41 N10       29.97S                  
WESTFIELD      PTSUNNY   65  41  41 NE10      29.98F                  
NORTH ADAMS    CLOUDY    63  41  44 W3        29.99S                  
PITTSFIELD     CLOUDY    60  41  49 SW6       29.98F                  
$$
 
RIZALL-132100-
RHODE ISLAND
  
CITY           SKY/WX    TMP DP  RH WIND       PRES   REMARKS
PROVIDENCE     PTSUNNY   60  39  45 NE14      30.02S                  
NEWPORT        CLOUDY    55  40  56 NE9       30.01S                  
BLOCK ISLAND   CLOUDY    50  41  71 E9        30.03R                  
SMITHFIELD     MOSUNNY   59  41  51 NE12      30.01S                  
WESTERLY       PTSUNNY   57  38  48 NE10      30.00S                  
$$
 
CTZALL-132100-
CONNECTICUT
  
CITY           SKY/WX    TMP DP  RH WIND       PRES   REMARKS
BRADLEY INTL   PTSUNNY   67  40  37 NE6       29.97F                  
HARTFORD       CLOUDY    65  41  41 N10       29.98F                  
BRIDGEPORT     MOSUNNY   58  44  60 SW13      29.99F                  
DANBURY        MOSUNNY   64  42  44 N8        30.00F                  
GROTON         PTSUNNY   52  43  71 SW10      30.00S                  
NEW HAVEN      MOSUNNY   59  45  59 SW9       29.98F                  
CHESTER        PTSUNNY   63  39  42 S10       29.99S                  
MERIDEN        MOSUNNY   67  40  37 NE8       29.98F                  
WILLIMANTIC    SUNNY     64  40  41 NE9       29.99R                  
OXFORD         PTSUNNY   61  43  51 E3        29.99F                  
$$

MEZ002-015-021-024-NHZ003-005-008-011-012-014-VTZ005-008-132100-
NORTHERN NEW ENGLAND
  
CITY           SKY/WX    TMP DP  RH WIND       PRES   REMARKS
PORTLAND ME    CLOUDY    61  40  45 NE7       30.00F                  
BANGOR ME      PTSUNNY   63  37  38 NE12G21   30.01S                  
CONCORD NH     CLOUDY    64  39  39 VRB3      30.00S                  
MANCHESTER NH  PTSUNNY   65  39  38 NE6       29.99S                  
NASHUA NH      PTSUNNY   65  40  39 SE7       30.00S                  
PORTSMOUTH NH  PTSUNNY   62  37  40 SE8       30.01F                  
JAFFREY NH     CLOUDY    62  40  44 VRB6      30.00S                  
KEENE NH       CLOUDY    64  41  42 VRB6      29.99S                  
BURLINGTON VT  MOSUNNY   66  39  37 NW10      30.00F                  
MT. WASHINGTON FOG       37  36  93 NW9         N/A  VSB 1/16WCI  31  
$$

NYZ052-076-132100-
EASTERN NEW YORK
  
CITY           SKY/WX    TMP DP  RH WIND       PRES   REMARKS
ALBANY         PTSUNNY   63  42  46 VRB3      30.00F                  
NEW YORK CITY  MOSUNNY   62  38  40 N10G18    30.01F                  
$$
 
ANZALL-132100-
MARINE OBSERVATIONS
  
STATION/POSITION TIME  TEMP    WIND        PRES    VSBY  WAVE
                       AIR SEA DIR/SP/G                  HT/PER
                 (UTC) (F)     (DEG/KT/KT) (MB)    (MI)  (FT/S)
BOSTON BUOY      1950   46 45   40/  4/  6 1017.2S         5/ 7
BUZZARDS BAY     1900           50/ 20/ 22 1017.2R
NANTUCKET SOUND  1950      47                N/A           3/ 4
MASS BAY-STELLWA 1904   46      60/  8/ 10 1015.8F  1 7/8  4/ 8
ISLE OF SHOALS   1900   47     120/ 10/ 11 1016.2F
S OF BLOCK IS    1926      44                N/A           4/ 5
$$

......................KEY.........................
  SKY/WX - SKY CONDITION/PRESENT WEATHER
  TMP    - TEMPERATURE IN FAHRENHEIT
  DWPT   - DEWPOINT IN FAHRENHEIT
  RH     - RELATIVE HUMIDITY IN PERCENT
  WIND   - DIRECTION AND SPEED IN MPH
  PRES   - MEAN SEA LEVEL PRESSURE IN INCHES OF HG
  WCI    - WIND CHILL INDEX
  VSB    - VISIBILITY IN MILES
  HX     - HEAT INDEX
  TC     - TEMPERATURE IN CELSIUS
  VRB    - VARIABLE WIND DIRECTION
  N/A    - NOT AVAILABLE
  
      

Other recent Regional Weather Roundups

Fri Apr 16, 10:05am

Fri Apr 16, 9:04am

Fri Apr 16, 8:04am

Fri Apr 16, 7:04am

Fri Apr 16, 6:04am

Fri Apr 16, 5:04am

Fri Apr 16, 4:04am

Fri Apr 16, 3:04am

Fri Apr 16, 2:04am

Fri Apr 16, 1:04am

Fri Apr 16, 12:04am

Thu Apr 15, 11:05pm

Thu Apr 15, 10:04pm

Thu Apr 15, 9:04pm

Thu Apr 15, 8:04pm

Thu Apr 15, 7:05pm

Thu Apr 15, 6:04pm

Thu Apr 15, 5:05pm

Thu Apr 15, 4:04pm

Thu Apr 15, 3:05pm

Thu Apr 15, 2:04pm

Thu Apr 15, 1:05pm

Thu Apr 15, 12:04pm

Thu Apr 15, 11:04am

Thu Apr 15, 10:05am

Thu Apr 15, 9:04am

Thu Apr 15, 8:04am

Thu Apr 15, 7:04am

Thu Apr 15, 6:04am

Thu Apr 15, 5:04am

Thu Apr 15, 4:04am

Thu Apr 15, 3:04am

Thu Apr 15, 2:04am

Thu Apr 15, 1:04am

Thu Apr 15, 12:04am

Wed Apr 14, 11:04pm

Wed Apr 14, 10:04pm

Wed Apr 14, 9:04pm

Wed Apr 14, 8:04pm

Wed Apr 14, 7:04pm

Wed Apr 14, 6:04pm

Wed Apr 14, 5:05pm

Wed Apr 14, 4:04pm

Wed Apr 14, 3:05pm

Wed Apr 14, 2:04pm

Wed Apr 14, 1:05pm

Wed Apr 14, 12:04pm

Wed Apr 14, 11:04am

Wed Apr 14, 10:04am

Wed Apr 14, 9:04am

Wed Apr 14, 8:04am

Wed Apr 14, 7:04am

Wed Apr 14, 6:04am

Wed Apr 14, 5:04am

Wed Apr 14, 4:04am

Wed Apr 14, 3:04am

Wed Apr 14, 2:04am

Wed Apr 14, 1:04am

Wed Apr 14, 12:04am

Tue Apr 13, 11:04pm

Tue Apr 13, 10:05pm

Tue Apr 13, 9:05pm

Tue Apr 13, 8:05pm

Tue Apr 13, 7:04pm

Tue Apr 13, 6:04pm

Tue Apr 13, 5:05pm

Tue Apr 13, 3:04pm

Tue Apr 13, 2:05pm

Tue Apr 13, 1:04pm

Tue Apr 13, 12:05pm

Tue Apr 13, 11:05am

Tue Apr 13, 10:04am

Tue Apr 13, 9:04am

Tue Apr 13, 8:04am

Tue Apr 13, 7:04am

Tue Apr 13, 6:04am

Tue Apr 13, 5:04am

Tue Apr 13, 4:04am

Tue Apr 13, 3:04am

Tue Apr 13, 2:04am

Tue Apr 13, 1:04am

Tue Apr 13, 12:05am

Mon Apr 12, 11:04pm

Mon Apr 12, 10:04pm

Mon Apr 12, 9:04pm

Mon Apr 12, 8:04pm

Mon Apr 12, 7:05pm

Mon Apr 12, 6:04pm

Mon Apr 12, 5:04pm

Mon Apr 12, 4:04pm

Mon Apr 12, 3:05pm

Mon Apr 12, 2:04pm

Mon Apr 12, 1:05pm

Mon Apr 12, 12:04pm

Mon Apr 12, 11:04am

Mon Apr 12, 10:04am

Mon Apr 12, 9:04am

Mon Apr 12, 8:04am

Mon Apr 12, 7:04am

Mon Apr 12, 6:04am

Mon Apr 12, 5:04am

Mon Apr 12, 4:04am

Mon Apr 12, 3:04am

Mon Apr 12, 2:04am

Mon Apr 12, 1:05am

Mon Apr 12, 12:04am

Sun Apr 11, 11:04pm

Sun Apr 11, 10:04pm

Sun Apr 11, 9:04pm

Sun Apr 11, 8:04pm

Sun Apr 11, 7:04pm

Sun Apr 11, 6:05pm

Sun Apr 11, 5:05pm

Sun Apr 11, 4:04pm

Sun Apr 11, 3:05pm

Sun Apr 11, 2:05pm

Sun Apr 11, 1:05pm

Sun Apr 11, 12:04pm

Sun Apr 11, 11:05am

Sun Apr 11, 10:05am

Sun Apr 11, 9:04am

Sun Apr 11, 8:04am

Sun Apr 11, 7:04am

Sun Apr 11, 6:04am

Sun Apr 11, 5:04am

Sun Apr 11, 4:04am

Sun Apr 11, 3:04am

Sun Apr 11, 2:04am

Sun Apr 11, 1:05am

Sun Apr 11, 12:04am

Sat Apr 10, 11:05pm

Sat Apr 10, 10:04pm

Sat Apr 10, 9:04pm

Sat Apr 10, 8:04pm

Sat Apr 10, 7:05pm

Sat Apr 10, 6:04pm

Sat Apr 10, 5:04pm

Sat Apr 10, 4:04pm

Sat Apr 10, 3:04pm

Sat Apr 10, 2:05pm

Sat Apr 10, 1:04pm

Sat Apr 10, 12:04pm

Sat Apr 10, 11:04am

Sat Apr 10, 10:04am

Sat Apr 10, 9:04am

Sat Apr 10, 8:04am

Sat Apr 10, 7:04am

Sat Apr 10, 6:04am

Sat Apr 10, 5:04am

Sat Apr 10, 4:04am

Sat Apr 10, 3:04am

Sat Apr 10, 2:04am

Sat Apr 10, 1:05am

Sat Apr 10, 12:04am

Fri Apr 9, 11:04pm

Fri Apr 9, 10:05pm

Fri Apr 9, 9:04pm

Fri Apr 9, 8:05pm

Fri Apr 9, 7:05pm

Fri Apr 9, 6:04pm

Fri Apr 9, 5:04pm

Fri Apr 9, 4:05pm

Fri Apr 9, 3:05pm

Fri Apr 9, 2:04pm

Fri Apr 9, 1:04pm

Fri Apr 9, 12:04pm

Fri Apr 9, 11:05am

Meta data:

ID: 7f6b9cfe-131a-40c7-9d76-984f5cbad6ac
Link: https://api.weather.gov/products/7f6b9cfe-131a-40c7-9d76-984f5cbad6ac